Time,TemperatureF,DewpointF,PressureIn,WindDirection,WindDirectionDegrees,WindSpeedMPH,WindSpeedGustMPH,Humidity,HourlyPrecipIn,Conditions,Clouds,dailyrainin,SolarRadiationWatts/m^2,SoftwareType,DateUTC
2013-05-23 00:04:00,47.6,42.4,29.98,NNE,26,2.3,0.0,82,0.00,RA,,0.00,0.0,WeatherDisplay:10.37,2013-05-22 22:04:00,
2013-05-23 00:09:00,47.2,42.3,29.98,NNE,26,0.0,0.0,83,0.00,RA,,0.00,0.0,WeatherDisplay:10.37,2013-05-22 22:09:00,
2013-05-23 00:14:00,46.8,41.9,29.98,NNE,26,0.0,0.0,83,0.00,OVC,,0.00,0.0,WeatherDisplay:10.37,2013-05-22 22:14:00,
2013-05-23 00:19:00,46.3,41.7,29.98,NNE,26,0.0,0.0,84,0.00,OVC,,0.00,0.0,WeatherDisplay:10.37,2013-05-22 22:19:00,
2013-05-23 00:24:00,45.8,41.2,29.98,NNE,26,0.0,0.0,84,0.00,OVC,,0.00,0.0,WeatherDisplay:10.37,2013-05-22 22:24:00,
2013-05-23 00:29:00,45.4,41.2,29.98,NNE,26,0.0,0.0,85,0.00,OVC,,0.00,0.0,WeatherDisplay:10.37,2013-05-22 22:29:00,
2013-05-23 00:34:00,45.0,41.1,29.98,NNE,26,0.0,0.0,86,0.00,OVC,,0.00,0.0,WeatherDisplay:10.37,2013-05-22 22:34:00,
2013-05-23 00:39:00,44.6,40.7,29.97,NNE,26,0.0,0.0,86,0.00,OVC,,0.00,0.0,WeatherDisplay:10.37,2013-05-22 22:39:00,
2013-05-23 00:45:00,44.3,40.7,29.97,NNE,26,0.0,0.0,87,0.00,OVC,,0.00,0.0,WeatherDisplay:10.37,2013-05-22 22:45:00,
2013-05-23 00:50:00,44.0,40.7,29.97,NNE,26,0.0,0.1,88,0.00,OVC,,0.00,0.0,WeatherDisplay:10.37,2013-05-22 22:50:00,
2013-05-23 00:55:00,43.8,40.5,29.97,NNE,26,0.0,0.0,88,0.00,OVC,,0.00,0.0,WeatherDisplay:10.37,2013-05-22 22:55:00,
2013-05-23 01:00:00,43.6,40.3,29.97,NNE,26,0.0,0.0,88,0.00,OVC,,0.00,0.0,WeatherDisplay:10.37,2013-05-22 23:00:00,
2013-05-23 01:05:00,43.4,40.1,29.97,NNE,26,0.0,0.0,88,0.00,OVC,,0.00,0.0,WeatherDisplay:10.37,2013-05-22 23:05:00,
2013-05-23 01:10:00,43.4,40.4,29.97,NNE,26,0.0,0.0,89,0.00,OVC,,0.00,0.0,WeatherDisplay:10.37,2013-05-22 23:10:00,
2013-05-23 01:15:00,43.4,40.4,29.97,NNE,26,0.0,0.0,89,0.00,OVC,,0.00,0.0,WeatherDisplay:10.37,2013-05-22 23:15:00,
2013-05-23 01:20:00,43.6,40.9,29.97,NNE,26,0.0,0.0,90,0.00,OVC,,0.00,0.0,WeatherDisplay:10.37,2013-05-22 23:20:00,
2013-05-23 01:25:00,43.9,41.2,29.96,NNE,26,0.0,0.0,90,0.00,OVC,,0.00,0.0,WeatherDisplay:10.37,2013-05-22 23:25:00,
2013-05-23 01:30:00,44.1,41.4,29.96,NNE,26,0.0,1.0,90,0.00,OVC,OVC,0.00,0.0,WeatherDisplay:10.37,2013-05-22 23:30:00,
2013-05-23 01:35:00,44.4,41.7,29.96,NNE,26,0.0,0.0,90,0.00,OVC,,0.00,0.0,WeatherDisplay:10.37,2013-05-22 23:35:00,
2013-05-23 01:40:00,44.6,41.8,29.96,NNE,26,2.3,2.3,90,0.00,OVC,,0.00,0.0,WeatherDisplay:10.37,2013-05-22 23:40:00,
2013-05-23 01:45:00,44.6,41.8,29.96,NNE,26,0.0,0.0,90,0.00,OVC,,0.00,0.0,WeatherDisplay:10.37,2013-05-22 23:45:00,
2013-05-23 01:50:00,44.7,41.9,29.96,NNE,26,3.5,3.5,90,0.00,OVC,,0.00,0.0,WeatherDisplay:10.37,2013-05-22 23:50:00,
2013-05-23 01:55:00,44.7,41.9,29.95,WNW,296,3.5,3.5,90,0.00,OVC,,0.00,0.0,WeatherDisplay:10.37,2013-05-22 23:55:00,
2013-05-23 02:00:00,44.8,42.0,29.95,NW,320,0.0,4.0,90,0.00,OVC,OVC,0.00,0.0,WeatherDisplay:10.37,2013-05-23 00:00:00,
2013-05-23 02:05:00,44.9,42.1,29.95,WNW,296,2.3,2.3,90,0.00,OVC,,0.00,0.0,WeatherDisplay:10.37,2013-05-23 00:05:00,
2013-05-23 02:10:00,45.0,42.2,29.95,WNW,296,1.2,1.2,90,0.00,OVC,,0.00,0.0,WeatherDisplay:10.37,2013-05-23 00:10:00,
2013-05-23 02:15:00,44.9,42.1,29.95,WNW,296,0.0,0.0,90,0.00,OVC,,0.00,0.0,WeatherDisplay:10.37,2013-05-23 00:15:00,
2013-05-23 02:20:00,45.0,42.2,29.95,WNW,296,0.0,0.0,90,0.00,OVC,,0.00,0.0,WeatherDisplay:10.37,2013-05-23 00:20:00,
2013-05-23 02:25:00,44.9,42.1,29.94,WNW,296,2.0,2.0,90,0.00,OVC,,0.00,0.0,WeatherDisplay:10.37,2013-05-23 00:25:00,
2013-05-23 02:30:00,44.9,42.1,29.94,WNW,296,0.0,0.0,90,0.00,OVC,,0.00,0.0,WeatherDisplay:10.37,2013-05-23 00:30:00,
2013-05-23 02:35:00,44.9,42.1,29.94,WNW,296,0.0,0.0,90,0.00,OVC,,0.00,0.0,WeatherDisplay:10.37,2013-05-23 00:35:00,
2013-05-23 02:40:00,44.9,42.1,29.94,WNW,296,0.0,0.0,90,0.00,OVC,,0.00,0.0,WeatherDisplay:10.37,2013-05-23 00:40:00,
2013-05-23 02:45:00,44.8,42.0,29.94,WNW,296,0.0,0.0,90,0.00,OVC,,0.00,0.0,WeatherDisplay:10.37,2013-05-23 00:45:00,
2013-05-23 02:50:00,44.6,41.6,29.93,WNW,296,0.0,0.0,89,0.00,OVC,,0.00,0.0,WeatherDisplay:10.37,2013-05-23 00:50:00,
2013-05-23 02:55:00,44.5,41.7,29.93,WNW,296,0.0,0.0,90,0.00,OVC,,0.00,0.0,WeatherDisplay:10.37,2013-05-23 00:55:00,
2013-05-23 03:00:00,44.1,41.4,29.93,WNW,296,0.0,0.0,90,0.00,OVC,,0.00,0.0,WeatherDisplay:10.37,2013-05-23 01:00:00,
2013-05-23 03:05:00,43.9,41.2,29.93,WNW,296,1.2,1.2,90,0.00,OVC,,0.00,0.0,WeatherDisplay:10.37,2013-05-23 01:05:00,
2013-05-23 03:10:00,43.8,41.3,29.93,WNW,296,0.0,0.0,91,0.00,OVC,,0.00,0.0,WeatherDisplay:10.37,2013-05-23 01:10:00,
2013-05-23 03:15:00,43.7,41.2,29.93,WNW,296,2.3,2.3,91,0.00,OVC,,0.00,0.0,WeatherDisplay:10.37,2013-05-23 01:15:00,
2013-05-23 03:20:00,43.5,41.0,29.93,WNW,296,0.0,0.0,91,0.00,OVC,,0.00,0.0,WeatherDisplay:10.37,2013-05-23 01:20:00,
2013-05-23 03:25:00,43.4,40.9,29.92,WNW,296,3.0,3.0,91,0.00,OVC,,0.00,0.0,WeatherDisplay:10.37,2013-05-23 01:25:00,
2013-05-23 03:30:00,43.4,40.9,29.92,WNW,296,2.3,2.3,91,0.00,OVC,,0.00,0.0,WeatherDisplay:10.37,2013-05-23 01:30:00,
2013-05-23 03:35:00,43.4,41.2,29.92,WNW,296,0.0,0.0,92,0.00,OVC,,0.00,0.0,WeatherDisplay:10.37,2013-05-23 01:35:00,
2013-05-23 03:40:00,43.6,41.4,29.92,WNW,296,1.2,1.2,92,0.00,OVC,,0.00,0.0,WeatherDisplay:10.37,2013-05-23 01:40:00,
2013-05-23 03:45:00,43.7,41.5,29.92,WNW,296,2.3,2.3,92,0.00,OVC,,0.00,0.0,WeatherDisplay:10.37,2013-05-23 01:45:00,
2013-05-23 03:50:00,43.7,41.5,29.92,WNW,296,2.3,2.3,92,0.00,OVC,,0.00,0.0,WeatherDisplay:10.37,2013-05-23 01:50:00,
2013-05-23 03:55:00,43.8,41.6,29.92,WNW,296,1.2,1.2,92,0.00,OVC,,0.00,0.0,WeatherDisplay:10.37,2013-05-23 01:55:00,
2013-05-23 04:00:00,44.0,41.8,29.92,WNW,296,1.2,1.2,92,0.00,OVC,,0.00,0.0,WeatherDisplay:10.37,2013-05-23 02:00:00,
2013-05-23 04:05:00,44.2,42.0,29.92,WNW,296,3.5,3.5,92,0.00,OVC,,0.00,0.0,WeatherDisplay:10.37,2013-05-23 02:05:00,
2013-05-23 04:10:00,44.3,42.1,29.92,WNW,296,0.0,0.0,92,0.00,OVC,,0.00,0.0,WeatherDisplay:10.37,2013-05-23 02:10:00,
2013-05-23 04:15:00,44.5,42.3,29.91,WNW,296,1.2,1.2,92,0.00,OVC,,0.00,0.0,WeatherDisplay:10.37,2013-05-23 02:15:00,
2013-05-23 04:20:00,44.7,42.5,29.91,WNW,296,2.3,2.3,92,0.00,OVC,,0.00,0.0,WeatherDisplay:10.37,2013-05-23 02:20:00,
2013-05-23 04:25:00,44.7,42.5,29.91,WNW,296,3.5,3.5,92,0.00,OVC,,0.00,0.0,WeatherDisplay:10.37,2013-05-23 02:25:00,
2013-05-23 04:30:00,44.8,42.6,29.91,WNW,296,3.5,0.0,92,0.00,OVC,,0.00,0.0,WeatherDisplay:10.37,2013-05-23 02:30:00,
2013-05-23 04:35:00,44.9,42.4,29.91,WNW,296,2.0,2.0,91,0.00,OVC,,0.00,0.0,WeatherDisplay:10.37,2013-05-23 02:35:00,
2013-05-23 04:40:00,45.1,42.6,29.91,WNW,296,0.0,0.0,91,0.00,OVC,,0.00,0.0,WeatherDisplay:10.37,2013-05-23 02:40:00,
2013-05-23 04:45:00,45.3,42.8,29.91,WNW,296,0.0,0.0,91,0.00,OVC,,0.00,0.0,WeatherDisplay:10.37,2013-05-23 02:45:00,
2013-05-23 04:50:00,45.3,42.8,29.91,WNW,296,0.0,0.0,91,0.00,OVC,,0.00,0.0,WeatherDisplay:10.37,2013-05-23 02:50:00,
2013-05-23 04:55:00,45.4,42.9,29.91,WNW,296,2.3,2.3,91,0.00,OVC,,0.00,0.0,WeatherDisplay:10.37,2013-05-23 02:55:00,
2013-05-23 05:00:00,45.5,43.0,29.91,WNW,296,0.0,0.0,91,0.00,OVC,,0.00,0.0,WeatherDisplay:10.37,2013-05-23 03:00:00,
2013-05-23 05:05:00,45.4,42.6,29.90,WNW,296,0.0,0.0,90,0.00,OVC,,0.00,0.0,WeatherDisplay:10.37,2013-05-23 03:05:00,
2013-05-23 05:10:00,45.4,42.6,29.90,WNW,296,0.0,0.0,90,0.00,OVC,,0.00,0.0,WeatherDisplay:10.37,2013-05-23 03:10:00,
2013-05-23 05:15:00,45.4,42.6,29.90,WNW,296,0.0,0.0,90,0.00,OVC,,0.00,0.0,WeatherDisplay:10.37,2013-05-23 03:15:00,
2013-05-23 05:20:00,45.2,42.4,29.90,WNW,296,2.3,2.3,90,0.00,OVC,,0.00,0.0,WeatherDisplay:10.37,2013-05-23 03:20:00,
2013-05-23 05:25:00,45.1,42.3,29.90,WNW,296,1.2,0.0,90,0.00,OVC,,0.00,0.0,WeatherDisplay:10.37,2013-05-23 03:25:00,
2013-05-23 05:30:00,45.0,42.2,29.90,WNW,296,0.0,0.0,90,0.00,OVC,,0.00,0.0,WeatherDisplay:10.37,2013-05-23 03:30:00,
2013-05-23 05:35:00,45.1,42.6,29.90,WNW,296,0.0,0.0,91,0.00,OVC,,0.00,0.0,WeatherDisplay:10.37,2013-05-23 03:35:00,
2013-05-23 05:40:00,45.2,42.7,29.90,WNW,296,0.0,0.0,91,0.00,OVC,,0.00,0.0,WeatherDisplay:10.37,2013-05-23 03:40:00,
2013-05-23 05:45:00,45.1,42.6,29.90,WNW,296,0.0,0.0,91,0.00,OVC,,0.00,0.0,WeatherDisplay:10.37,2013-05-23 03:45:00,
2013-05-23 05:50:00,45.1,42.6,29.90,WNW,296,3.0,3.0,91,0.00,OVC,,0.00,0.0,WeatherDisplay:10.37,2013-05-23 03:50:00,
2013-05-23 05:55:00,45.2,42.7,29.91,WNW,296,1.2,1.2,91,0.00,OVC,,0.00,0.0,WeatherDisplay:10.37,2013-05-23 03:55:00,
2013-05-23 06:00:00,45.2,42.7,29.90,WNW,296,0.0,0.6,91,0.00,OVC,,0.00,0.0,WeatherDisplay:10.37,2013-05-23 04:00:00,
2013-05-23 06:01:00,45.3,42.8,29.90,WNW,296,0.0,0.6,91,0.00,OVC,,0.00,0.0,WeatherDisplay:10.37,2013-05-23 04:01:00,
2013-05-23 06:06:00,45.2,42.7,29.90,WNW,296,1.2,1.2,91,0.00,BKN,,0.00,5.0,WeatherDisplay:10.37,2013-05-23 04:06:00,
2013-05-23 06:11:00,45.1,42.6,29.90,WNW,296,1.2,1.2,91,0.00,BKN,,0.00,7.0,WeatherDisplay:10.37,2013-05-23 04:11:00,
2013-05-23 06:16:00,45.1,42.6,29.90,WNW,296,0.0,0.0,91,0.00,BKN,,0.00,11.0,WeatherDisplay:10.37,2013-05-23 04:16:00,
2013-05-23 06:21:00,45.2,43.0,29.91,WNW,296,2.3,2.3,92,0.00,BKN,,0.00,12.0,WeatherDisplay:10.37,2013-05-23 04:21:00,
2013-05-23 06:26:00,45.3,42.8,29.91,WNW,296,1.2,0.0,91,0.00,BKN,,0.00,18.0,WeatherDisplay:10.37,2013-05-23 04:26:00,
2013-05-23 06:31:00,45.3,42.8,29.91,WNW,296,2.3,2.3,91,0.00,BKN,,0.00,21.0,WeatherDisplay:10.37,2013-05-23 04:31:00,
2013-05-23 06:36:00,45.3,42.8,29.91,WNW,296,1.2,0.0,91,0.00,BKN,,0.00,23.0,WeatherDisplay:10.37,2013-05-23 04:36:00,
2013-05-23 06:41:00,45.4,43.2,29.91,WNW,296,2.3,2.3,92,0.00,BKN,,0.00,28.0,WeatherDisplay:10.37,2013-05-23 04:41:00,
2013-05-23 06:46:00,45.4,43.2,29.91,WNW,296,0.0,0.0,92,0.00,BKN,,0.00,33.0,WeatherDisplay:10.37,2013-05-23 04:46:00,
2013-05-23 06:51:00,45.6,43.4,29.90,WNW,296,0.0,0.0,92,0.00,BKN,,0.00,26.0,WeatherDisplay:10.37,2013-05-23 04:51:00,
2013-05-23 06:56:00,45.8,43.3,29.90,WNW,296,3.5,3.5,91,0.00,BKN,,0.00,40.0,WeatherDisplay:10.37,2013-05-23 04:56:00,
2013-05-23 07:01:00,45.9,43.4,29.90,WNW,296,3.5,3.5,91,0.00,BKN,,0.00,46.0,WeatherDisplay:10.37,2013-05-23 05:01:00,
2013-05-23 07:06:00,46.0,43.5,29.90,WNW,296,3.5,3.5,91,0.00,BKN,,0.00,54.0,WeatherDisplay:10.37,2013-05-23 05:06:00,
2013-05-23 07:11:00,46.1,43.6,29.90,WNW,296,2.3,2.3,91,0.00,BKN,,0.00,49.0,WeatherDisplay:10.37,2013-05-23 05:11:00,
2013-05-23 07:16:00,46.3,43.5,29.90,WNW,296,2.3,2.3,90,0.00,BKN,,0.00,51.0,WeatherDisplay:10.37,2013-05-23 05:16:00,
2013-05-23 07:21:00,46.4,43.6,29.90,WNW,296,3.5,3.5,90,0.00,BKN,,0.00,67.0,WeatherDisplay:10.37,2013-05-23 05:21:00,
2013-05-23 07:26:00,46.5,43.7,29.90,WNW,296,3.5,3.5,90,0.00,BKN,,0.00,77.0,WeatherDisplay:10.37,2013-05-23 05:26:00,
2013-05-23 07:31:00,46.6,43.5,29.90,WNW,296,0.0,0.0,89,0.00,BKN,,0.00,79.0,WeatherDisplay:10.37,2013-05-23 05:31:00,
2013-05-23 07:36:00,46.9,43.8,29.89,WNW,296,0.0,0.0,89,0.00,BKN,,0.00,86.0,WeatherDisplay:10.37,2013-05-23 05:36:00,
2013-05-23 07:41:00,47.0,43.9,29.89,WNW,296,2.3,2.3,89,0.00,BKN,,0.00,93.0,WeatherDisplay:10.37,2013-05-23 05:41:00,
2013-05-23 07:46:00,47.2,44.1,29.89,WNW,296,3.5,3.5,89,0.00,BKN,,0.00,113.0,WeatherDisplay:10.37,2013-05-23 05:46:00,
2013-05-23 07:51:00,47.3,43.9,29.89,WNW,296,2.3,0.0,88,0.00,BKN,,0.00,120.0,WeatherDisplay:10.37,2013-05-23 05:51:00,
2013-05-23 07:56:00,47.6,44.2,29.89,WNW,296,0.0,0.0,88,0.00,BKN,,0.00,135.0,WeatherDisplay:10.37,2013-05-23 05:56:00,
2013-05-23 08:01:00,48.0,44.6,29.89,WNW,296,0.0,0.0,88,0.00,FEW,,0.00,232.0,WeatherDisplay:10.37,2013-05-23 06:01:00,
2013-05-23 08:06:00,48.6,44.9,29.89,WNW,296,0.0,0.0,87,0.00,CLR,,0.00,302.0,WeatherDisplay:10.37,2013-05-23 06:06:00,
2013-05-23 08:11:00,49.1,44.8,29.89,WNW,296,1.2,0.0,85,0.00,CLR,,0.00,348.0,WeatherDisplay:10.37,2013-05-23 06:11:00,
2013-05-23 08:16:00,49.3,44.4,29.89,WNW,296,2.3,2.3,83,0.00,SCT,,0.00,274.0,WeatherDisplay:10.37,2013-05-23 06:16:00,
2013-05-23 08:21:00,49.2,44.3,29.89,ENE,61,0.0,0.0,83,0.00,CLR,,0.00,376.0,WeatherDisplay:10.37,2013-05-23 06:21:00,
2013-05-23 08:26:00,49.5,44.6,29.89,ENE,71,3.0,3.0,83,0.00,FEW,,0.00,320.0,WeatherDisplay:10.37,2013-05-23 06:26:00,
2013-05-23 08:31:00,49.2,43.6,29.89,ESE,122,3.5,3.5,81,0.00,CLR,,0.00,367.0,WeatherDisplay:10.37,2013-05-23 06:31:00,
2013-05-23 08:36:00,49.4,43.5,29.89,ESE,122,3.5,3.5,80,0.00,CLR,,0.00,436.0,WeatherDisplay:10.37,2013-05-23 06:36:00,
2013-05-23 08:41:00,49.9,44.0,29.89,ESE,122,3.5,3.5,80,0.00,CLR,,0.00,378.0,WeatherDisplay:10.37,2013-05-23 06:41:00,
2013-05-23 08:46:00,50.2,43.9,29.89,ESE,110,3.5,3.5,79,0.00,CLR,,0.00,438.0,WeatherDisplay:10.37,2013-05-23 06:46:00,
2013-05-23 08:51:00,50.8,44.5,29.89,ESE,110,4.0,4.0,79,0.00,CLR,,0.00,443.0,WeatherDisplay:10.37,2013-05-23 06:51:00,
2013-05-23 08:56:00,50.3,43.4,29.89,ESE,110,3.5,3.5,77,0.00,CLR,,0.00,513.0,WeatherDisplay:10.37,2013-05-23 06:56:00,
2013-05-23 09:01:00,51.1,45.1,29.89,ESE,107,1.0,1.0,80,0.00,CLR,,0.00,554.0,WeatherDisplay:10.37,2013-05-23 07:01:00,
2013-05-23 09:06:00,51.2,44.6,29.89,ESE,111,3.5,3.5,78,0.00,CLR,,0.00,559.0,WeatherDisplay:10.37,2013-05-23 07:06:00,
2013-05-23 09:11:00,51.5,44.2,29.89,East,90,5.8,5.8,76,0.00,CLR,,0.00,589.0,WeatherDisplay:10.37,2013-05-23 07:11:00,
2013-05-23 09:16:00,51.7,43.7,29.89,SE,134,3.5,3.5,74,0.00,CLR,,0.00,610.0,WeatherDisplay:10.37,2013-05-23 07:16:00,
2013-05-23 09:21:00,51.9,44.2,29.89,SE,126,3.5,3.5,75,0.00,CLR,,0.00,694.0,WeatherDisplay:10.37,2013-05-23 07:21:00,
2013-05-23 09:26:00,51.4,43.4,29.89,ESE,121,3.5,3.5,74,0.00,SCT,,0.00,315.0,WeatherDisplay:10.37,2013-05-23 07:26:00,
2013-05-23 09:32:00,51.2,43.2,29.88,SE,124,4.6,4.6,74,0.00,CLR,,0.00,689.0,WeatherDisplay:10.37,2013-05-23 07:32:00,
2013-05-23 09:37:00,51.4,43.4,29.88,ESE,109,6.9,6.9,74,0.00,CLR,,0.00,613.0,WeatherDisplay:10.37,2013-05-23 07:37:00,
2013-05-23 09:42:00,51.5,43.8,29.88,ESE,119,5.8,5.8,75,0.00,CLR,,0.00,534.0,WeatherDisplay:10.37,2013-05-23 07:42:00,
2013-05-23 09:47:00,51.3,42.9,29.88,SE,128,6.9,6.9,73,0.00,CLR,,0.00,671.0,WeatherDisplay:10.37,2013-05-23 07:47:00,
2013-05-23 09:52:00,51.4,42.7,29.88,SSE,155,5.8,5.8,72,0.00,CLR,,0.00,668.0,WeatherDisplay:10.37,2013-05-23 07:52:00,
2013-05-23 09:57:00,51.8,43.1,29.88,SE,125,8.1,8.1,72,0.00,CLR,,0.00,675.0,WeatherDisplay:10.37,2013-05-23 07:57:00,
2013-05-23 10:02:00,51.8,42.7,29.87,SE,144,6.9,6.9,71,0.00,CLR,,0.00,682.0,WeatherDisplay:10.37,2013-05-23 08:02:00,
2013-05-23 10:07:00,52.2,43.4,29.87,SSE,150,6.0,6.0,72,0.00,CLR,,0.00,701.0,WeatherDisplay:10.37,2013-05-23 08:07:00,
2013-05-23 10:12:00,53.0,43.5,29.87,SE,134,5.8,5.8,70,0.00,CLR,,0.00,708.0,WeatherDisplay:10.37,2013-05-23 08:12:00,
2013-05-23 10:17:00,52.7,42.0,29.87,ESE,117,9.2,9.2,67,0.00,CLR,,0.00,717.0,WeatherDisplay:10.37,2013-05-23 08:17:00,
2013-05-23 10:22:00,52.7,42.0,29.86,East,98,10.4,10.4,67,0.00,CLR,,0.00,729.0,WeatherDisplay:10.37,2013-05-23 08:22:00,
2013-05-23 10:27:00,52.7,41.7,29.86,SE,139,10.4,10.4,66,0.00,CLR,,0.00,742.0,WeatherDisplay:10.37,2013-05-23 08:27:00,
2013-05-23 10:32:00,52.7,41.3,29.86,East,97,9.2,9.2,65,0.00,CLR,,0.00,756.0,WeatherDisplay:10.37,2013-05-23 08:32:00,
2013-05-23 10:37:00,53.3,41.4,29.86,ESE,106,5.8,5.8,64,0.00,CLR,,0.00,770.0,WeatherDisplay:10.37,2013-05-23 08:37:00,
2013-05-23 10:42:00,53.3,40.6,29.86,ESE,105,6.9,6.9,62,0.00,CLR,,0.00,828.0,WeatherDisplay:10.37,2013-05-23 08:42:00,
2013-05-23 10:47:00,53.8,41.5,29.85,SE,128,8.1,8.1,63,0.00,CLR,,0.00,884.0,WeatherDisplay:10.37,2013-05-23 08:47:00,
2013-05-23 10:52:00,54.9,42.5,29.85,ESE,111,9.2,9.2,63,0.00,CLR,,0.00,886.0,WeatherDisplay:10.37,2013-05-23 08:52:00,
2013-05-23 10:57:00,55.4,41.7,29.85,SE,124,3.5,3.5,60,0.00,CLR,,0.00,898.0,WeatherDisplay:10.37,2013-05-23 08:57:00,
2013-05-23 11:02:00,55.7,42.0,29.85,ESE,121,3.5,3.5,60,0.00,SCT,,0.00,568.0,WeatherDisplay:10.37,2013-05-23 09:02:00,
2013-05-23 11:07:00,55.4,40.0,29.85,SSE,157,8.1,8.1,56,0.00,CLR,,0.00,995.0,WeatherDisplay:10.37,2013-05-23 09:07:00,
2013-05-23 11:12:00,55.3,41.2,29.84,South,184,3.5,3.5,59,0.00,CLR,,0.00,949.0,WeatherDisplay:10.37,2013-05-23 09:12:00,
2013-05-23 11:17:00,55.2,40.2,29.84,SSE,150,6.0,6.0,57,0.00,BKN,,0.00,376.0,WeatherDisplay:10.37,2013-05-23 09:17:00,
2013-05-23 11:22:00,55.1,40.1,29.84,NE,53,8.1,8.1,57,0.00,SCT,,0.00,900.0,WeatherDisplay:10.37,2013-05-23 09:22:00,
2013-05-23 11:27:00,55.9,41.8,29.84,ESE,114,6.9,6.9,59,0.00,CLR,,0.00,888.0,WeatherDisplay:10.37,2013-05-23 09:27:00,
2013-05-23 11:32:00,56.2,42.9,29.84,NE,49,3.5,3.5,61,0.00,FEW,,0.00,722.0,WeatherDisplay:10.37,2013-05-23 09:32:00,
2013-05-23 11:37:00,56.0,41.0,29.83,SSE,159,5.8,5.8,57,0.00,CLR,,0.00,914.0,WeatherDisplay:10.37,2013-05-23 09:37:00,
2013-05-23 11:42:00,56.1,42.8,29.83,East,80,7.0,7.0,61,0.00,BKN,,0.00,459.0,WeatherDisplay:10.37,2013-05-23 09:42:00,
2013-05-23 11:47:00,56.0,40.1,29.83,SSE,148,2.0,2.0,55,0.00,SCT,,0.00,443.0,WeatherDisplay:10.37,2013-05-23 09:47:00,
2013-05-23 11:52:00,56.6,41.1,29.83,East,97,6.9,6.9,56,0.00,BKN,,0.00,410.0,WeatherDisplay:10.37,2013-05-23 09:52:00,
2013-05-23 11:57:00,56.0,41.0,29.83,East,85,5.8,5.8,57,0.00,BKN,,0.00,534.0,WeatherDisplay:10.37,2013-05-23 09:57:00,
2013-05-23 12:02:00,56.6,41.1,29.83,SE,130,6.9,6.9,56,0.00,FEW,,0.00,533.0,WeatherDisplay:10.37,2013-05-23 10:02:00,
2013-05-23 12:07:00,57.1,41.5,29.83,ESE,114,7.0,7.0,56,0.00,CLR,,0.00,1081.0,WeatherDisplay:10.37,2013-05-23 10:07:00,
2013-05-23 12:12:00,58.0,41.4,29.83,ESE,113,6.9,6.9,54,0.00,CLR,,0.00,1109.0,WeatherDisplay:10.37,2013-05-23 10:12:00,
2013-05-23 12:17:00,57.5,40.0,29.83,ESE,121,6.9,6.9,52,0.00,CLR,,0.00,984.0,WeatherDisplay:10.37,2013-05-23 10:17:00,
2013-05-23 12:22:00,56.4,40.0,29.82,ESE,111,5.8,5.8,54,0.00,BKN,,0.00,438.0,WeatherDisplay:10.37,2013-05-23 10:22:00,
2013-05-23 12:27:00,56.0,39.6,29.82,SW,223,4.0,4.0,54,0.00,BKN,,0.00,283.0,WeatherDisplay:10.37,2013-05-23 10:27:00,
2013-05-23 12:32:00,55.8,39.4,29.83,SSE,160,2.3,2.3,54,0.00,BKN,,0.00,271.0,WeatherDisplay:10.37,2013-05-23 10:32:00,
2013-05-23 12:37:00,55.7,38.3,29.82,SE,124,5.8,5.8,52,0.00,BKN,,0.00,373.0,WeatherDisplay:10.37,2013-05-23 10:37:00,
2013-05-23 12:42:00,56.0,39.1,29.82,ESE,123,4.6,4.6,53,0.00,BKN,,0.00,309.0,WeatherDisplay:10.37,2013-05-23 10:42:00,
2013-05-23 12:47:00,56.0,37.6,29.82,SW,226,2.3,2.3,50,0.00,BKN,,0.00,262.0,WeatherDisplay:10.37,2013-05-23 10:47:00,
2013-05-23 12:52:00,55.9,38.0,29.82,SE,137,2.3,2.3,51,0.00,BKN,,0.00,262.0,WeatherDisplay:10.37,2013-05-23 10:52:00,
2013-05-23 12:57:00,55.9,38.0,29.82,SSE,165,3.5,3.5,51,0.00,BKN,,0.00,320.0,WeatherDisplay:10.37,2013-05-23 10:57:00,
2013-05-23 13:02:00,56.2,38.3,29.82,West,281,3.5,3.5,51,0.00,BKN,,0.00,301.0,WeatherDisplay:10.37,2013-05-23 11:02:00,
2013-05-23 13:07:00,56.2,38.8,29.82,West,269,3.5,3.5,52,0.00,BKN,,0.00,269.0,WeatherDisplay:10.37,2013-05-23 11:07:00,
2013-05-23 13:12:00,56.2,39.8,29.82,West,271,6.9,6.9,54,0.00,BKN,,0.00,221.0,WeatherDisplay:10.37,2013-05-23 11:12:00,
2013-05-23 13:17:00,56.1,40.6,29.82,West,281,3.5,3.5,56,0.00,BKN,,0.00,172.0,WeatherDisplay:10.37,2013-05-23 11:17:00,
2013-05-23 13:22:00,56.0,41.0,29.82,WNW,302,11.5,11.5,57,0.00,BKN,,0.00,146.0,WeatherDisplay:10.37,2013-05-23 11:22:00,
2013-05-23 13:27:00,55.8,40.8,29.82,WSW,244,11.0,11.0,57,0.00,BKN,,0.00,116.0,WeatherDisplay:10.37,2013-05-23 11:27:00,
2013-05-23 13:32:00,55.3,40.8,29.81,SW,223,9.2,9.2,58,0.00,BKN,,0.00,111.0,WeatherDisplay:10.37,2013-05-23 11:32:00,
2013-05-23 13:37:00,55.1,40.6,29.81,West,271,10.4,10.4,58,0.00,BKN,,0.00,107.0,WeatherDisplay:10.37,2013-05-23 11:37:00,
2013-05-23 13:42:00,54.9,40.4,29.81,WSW,247,10.0,10.0,58,0.00,BKN,,0.00,107.0,WeatherDisplay:10.37,2013-05-23 11:42:00,
2013-05-23 13:47:00,54.9,41.3,29.81,West,266,10.4,10.4,60,0.00,BKN,,0.00,120.0,WeatherDisplay:10.37,2013-05-23 11:47:00,
2013-05-23 13:52:00,54.8,41.2,29.81,WNW,294,6.0,6.0,60,0.00,BKN,,0.00,137.0,WeatherDisplay:10.37,2013-05-23 11:52:00,
2013-05-23 13:57:00,55.0,41.4,29.81,WSW,239,7.0,7.0,60,0.00,BKN,,0.00,127.0,WeatherDisplay:10.37,2013-05-23 11:57:00,
2013-05-23 14:02:00,55.0,40.9,29.81,NNE,30,9.2,9.2,59,0.00,BKN,,0.00,90.0,WeatherDisplay:10.37,2013-05-23 12:02:00,
2013-05-23 14:07:00,54.8,41.2,29.81,WSW,251,9.2,9.2,60,0.00,BKN,,0.00,90.0,WeatherDisplay:10.37,2013-05-23 12:07:00,
2013-05-23 14:12:00,54.7,41.5,29.81,South,179,9.2,9.2,61,0.00,BKN,,0.00,91.0,WeatherDisplay:10.37,2013-05-23 12:12:00,
2013-05-23 14:17:00,54.6,41.0,29.81,SW,215,9.2,9.2,60,0.00,BKN,,0.00,139.0,WeatherDisplay:10.37,2013-05-23 12:17:00,
2013-05-23 14:22:00,54.8,40.7,29.81,SW,221,8.1,8.1,59,0.00,BKN,,0.00,174.0,WeatherDisplay:10.37,2013-05-23 12:22:00,
2013-05-23 14:28:00,55.1,41.9,29.81,NE,51,8.0,8.0,61,0.00,BKN,,0.00,234.0,WeatherDisplay:10.37,2013-05-23 12:28:00,
2013-05-23 14:32:00,55.3,41.6,29.81,WNW,288,4.6,4.6,60,0.00,BKN,,0.00,257.0,WeatherDisplay:10.37,2013-05-23 12:32:00,
2013-05-23 14:38:00,55.4,41.7,29.81,SSW,207,5.0,5.0,60,0.00,BKN,,0.00,278.0,WeatherDisplay:10.37,2013-05-23 12:38:00,
2013-05-23 14:43:00,55.7,42.9,29.81,NNW,327,9.2,9.2,62,0.00,BKN,,0.00,483.0,WeatherDisplay:10.37,2013-05-23 12:43:00,
2013-05-23 14:48:00,56.0,41.0,29.81,SW,219,9.2,9.2,57,0.00,SCT,,0.00,345.0,WeatherDisplay:10.37,2013-05-23 12:48:00,
2013-05-23 14:53:00,56.2,42.5,29.81,WSW,257,12.7,12.7,60,0.00,BKN,,0.00,364.0,WeatherDisplay:10.37,2013-05-23 12:53:00,
2013-05-23 14:58:00,56.0,41.0,29.81,WNW,287,14.0,14.0,57,0.00,BKN,,0.00,336.0,WeatherDisplay:10.37,2013-05-23 12:58:00,
2013-05-23 15:03:00,56.0,41.4,29.81,West,263,9.2,9.2,58,0.00,BKN,,0.00,330.0,WeatherDisplay:10.37,2013-05-23 13:03:00,
2013-05-23 15:08:00,55.8,39.9,29.81,WSW,246,9.2,9.2,55,0.00,BKN,,0.00,258.0,WeatherDisplay:10.37,2013-05-23 13:08:00,
2013-05-23 15:13:00,55.5,41.0,29.81,SW,218,10.4,10.4,58,0.00,BKN,,0.00,211.0,WeatherDisplay:10.37,2013-05-23 13:13:00,
2013-05-23 15:18:00,55.4,40.0,29.81,WSW,257,10.4,10.4,56,0.00,BKN,,0.00,200.0,WeatherDisplay:10.37,2013-05-23 13:18:00,
2013-05-23 15:23:00,54.8,38.9,29.81,SSW,206,17.3,17.3,55,0.00,BKN,,0.00,204.0,WeatherDisplay:10.37,2013-05-23 13:23:00,
2013-05-23 15:28:00,54.3,39.4,29.81,SW,216,10.4,10.4,57,0.00,BKN,,0.00,114.0,WeatherDisplay:10.37,2013-05-23 13:28:00,
2013-05-23 15:33:00,54.1,40.5,29.81,West,281,4.6,4.6,60,0.00,BKN,,0.00,118.0,WeatherDisplay:10.37,2013-05-23 13:33:00,
2013-05-23 15:38:00,53.9,40.8,29.81,SSW,211,4.6,4.6,61,0.00,BKN,,0.00,216.0,WeatherDisplay:10.37,2013-05-23 13:38:00,
2013-05-23 15:43:00,54.0,40.8,29.81,SW,235,6.9,6.9,61,0.00,BKN,,0.00,221.0,WeatherDisplay:10.37,2013-05-23 13:43:00,
2013-05-23 15:48:00,54.2,40.6,29.81,West,262,10.4,10.4,60,0.00,BKN,,0.00,186.0,WeatherDisplay:10.37,2013-05-23 13:48:00,
2013-05-23 15:53:00,54.1,41.4,29.81,West,273,6.9,6.9,62,0.00,BKN,,0.00,123.0,WeatherDisplay:10.37,2013-05-23 13:53:00,
2013-05-23 15:58:00,53.8,40.7,29.81,WSW,252,4.6,4.6,61,0.00,BKN,,0.00,130.0,WeatherDisplay:10.37,2013-05-23 13:58:00,
2013-05-23 16:03:00,54.0,42.1,29.80,WSW,240,2.3,2.3,64,0.00,BKN,,0.00,218.0,WeatherDisplay:10.37,2013-05-23 14:03:00,
2013-05-23 16:08:00,54.2,41.9,29.81,WSW,237,11.5,11.5,63,0.00,BKN,,0.00,223.0,WeatherDisplay:10.37,2013-05-23 14:08:00,
2013-05-23 16:13:00,54.4,42.5,29.81,SW,217,9.2,9.2,64,0.00,BKN,,0.00,209.0,WeatherDisplay:10.37,2013-05-23 14:13:00,
2013-05-23 16:18:00,54.4,42.5,29.81,West,275,11.5,11.5,64,0.00,BKN,,0.00,237.0,WeatherDisplay:10.37,2013-05-23 14:18:00,
2013-05-23 16:23:00,53.9,42.4,29.82,WSW,244,17.3,17.3,65,0.00,BKN,,0.00,151.0,WeatherDisplay:10.37,2013-05-23 14:23:00,
2013-05-23 16:28:00,52.5,42.6,29.83,West,277,16.1,16.1,69,0.00,BKN,,0.00,116.0,WeatherDisplay:10.37,2013-05-23 14:28:00,
2013-05-23 16:33:00,50.9,42.6,29.83,West,273,12.7,12.7,73,0.00,BKN,,0.00,84.0,WeatherDisplay:10.37,2013-05-23 14:33:00,
2013-05-23 16:38:00,49.9,42.3,29.83,NW,320,15.0,15.0,75,0.00,BKN,,0.00,105.0,WeatherDisplay:10.37,2013-05-23 14:38:00,
2013-05-23 16:43:00,49.4,41.8,29.84,WNW,295,9.2,9.2,75,0.00,BKN,,0.00,84.0,WeatherDisplay:10.37,2013-05-23 14:43:00,
2013-05-23 16:48:00,48.8,42.2,29.84,NE,49,12.7,12.7,78,0.01,RA,,0.01,76.0,WeatherDisplay:10.37,2013-05-23 14:48:00,
2013-05-23 16:53:00,47.2,41.0,29.85,NW,304,12.7,12.7,79,0.02,RA,,0.02,83.0,WeatherDisplay:10.37,2013-05-23 14:53:00,
2013-05-23 16:58:00,45.9,39.1,29.85,WNW,286,26.5,26.5,77,0.02,RA,,0.02,104.0,WeatherDisplay:10.37,2013-05-23 14:58:00,
2013-05-23 17:03:00,45.2,38.7,29.85,WNW,282,26.5,26.5,78,0.02,BKN,,0.02,141.0,WeatherDisplay:10.37,2013-05-23 15:03:00,
2013-05-23 17:08:00,44.9,38.5,29.86,West,271,12.0,12.0,78,0.02,BKN,,0.02,121.0,WeatherDisplay:10.37,2013-05-23 15:08:00,
2013-05-23 17:13:00,45.0,38.6,29.85,WNW,299,11.5,11.5,78,0.02,BKN,,0.02,111.0,WeatherDisplay:10.37,2013-05-23 15:13:00,
2013-05-23 17:18:00,45.5,39.4,29.85,WNW,288,9.2,9.2,79,0.02,BKN,,0.02,148.0,WeatherDisplay:10.37,2013-05-23 15:18:00,
2013-05-23 17:23:00,46.0,39.2,29.84,WNW,282,7.0,7.0,77,0.02,BKN,,0.02,195.0,WeatherDisplay:10.37,2013-05-23 15:23:00,
2013-05-23 17:28:00,46.7,39.5,29.84,West,277,9.2,9.2,76,0.02,BKN,,0.02,216.0,WeatherDisplay:10.37,2013-05-23 15:28:00,
2013-05-23 17:33:00,47.0,38.8,29.84,NW,312,10.4,10.4,73,0.02,BKN,,0.02,251.0,WeatherDisplay:10.37,2013-05-23 15:33:00,
2013-05-23 17:38:00,47.4,39.5,29.84,WNW,290,6.9,6.9,74,0.02,BKN,,0.02,162.0,WeatherDisplay:10.37,2013-05-23 15:38:00,
2013-05-23 17:43:00,47.8,38.8,29.84,West,277,4.6,4.6,71,0.02,BKN,,0.02,128.0,WeatherDisplay:10.37,2013-05-23 15:43:00,
2013-05-23 17:48:00,48.1,39.9,29.84,West,277,0.0,0.0,73,0.01,BKN,,0.02,98.0,WeatherDisplay:10.37,2013-05-23 15:48:00,
2013-05-23 17:53:00,48.1,39.5,29.84,NNE,15,0.0,0.0,72,0.00,BKN,,0.02,84.0,WeatherDisplay:10.37,2013-05-23 15:53:00,
2013-05-23 17:58:00,48.0,40.5,29.84,NE,39,4.6,4.6,75,0.00,BKN,,0.02,83.0,WeatherDisplay:10.37,2013-05-23 15:58:00,
2013-05-23 18:03:00,47.8,38.8,29.84,ESE,112,5.0,5.0,71,0.00,BKN,,0.02,70.0,WeatherDisplay:10.37,2013-05-23 16:03:00,
2013-05-23 18:08:00,47.7,38.4,29.85,ESE,115,3.5,3.5,70,0.00,BKN,,0.02,72.0,WeatherDisplay:10.37,2013-05-23 16:08:00,
2013-05-23 18:13:00,47.5,39.3,29.85,ESE,115,0.0,0.0,73,0.00,BKN,,0.02,88.0,WeatherDisplay:10.37,2013-05-23 16:13:00,
2013-05-23 18:18:00,47.8,39.2,29.84,ESE,115,2.3,2.3,72,0.00,BKN,,0.02,144.0,WeatherDisplay:10.37,2013-05-23 16:18:00,
2013-05-23 18:23:00,48.8,40.9,29.84,ESE,115,2.0,2.0,74,0.00,CLR,,0.02,169.0,WeatherDisplay:10.37,2013-05-23 16:23:00,
2013-05-23 18:28:00,49.6,40.2,29.85,SSW,202,3.5,3.5,70,0.00,BKN,,0.02,169.0,WeatherDisplay:10.37,2013-05-23 16:28:00,
2013-05-23 18:33:00,49.8,39.3,29.84,SSW,202,1.0,1.0,67,0.00,BKN,,0.02,125.0,WeatherDisplay:10.37,2013-05-23 16:33:00,
2013-05-23 18:38:00,49.6,38.3,29.85,SSW,202,1.2,1.2,65,0.00,BKN,,0.02,155.0,WeatherDisplay:10.37,2013-05-23 16:38:00,
2013-05-23 18:43:00,49.7,39.6,29.85,SE,131,0.0,0.0,68,0.00,BKN,,0.02,149.0,WeatherDisplay:10.37,2013-05-23 16:43:00,
2013-05-23 18:48:00,49.9,40.5,29.85,SE,131,1.0,0.0,70,0.00,BKN,,0.02,109.0,WeatherDisplay:10.37,2013-05-23 16:48:00,
2013-05-23 18:53:00,49.6,38.3,29.85,SE,131,1.2,0.0,65,0.00,BKN,,0.02,93.0,WeatherDisplay:10.37,2013-05-23 16:53:00,
2013-05-23 18:58:00,49.4,38.9,29.86,SE,131,3.5,3.5,67,0.00,BKN,,0.02,88.0,WeatherDisplay:10.37,2013-05-23 16:58:00,
2013-05-23 19:03:00,49.2,39.5,29.86,SE,131,0.0,0.0,69,0.00,BKN,,0.02,83.0,WeatherDisplay:10.37,2013-05-23 17:03:00,
2013-05-23 19:08:00,48.9,40.3,29.86,SE,144,2.3,0.0,72,0.00,BKN,,0.02,86.0,WeatherDisplay:10.37,2013-05-23 17:08:00,
2013-05-23 19:13:00,48.6,41.7,29.86,SE,141,3.5,3.5,77,0.00,BKN,,0.02,109.0,WeatherDisplay:10.37,2013-05-23 17:13:00,
2013-05-23 19:19:00,48.2,41.7,29.86,West,259,5.8,5.8,78,0.00,BKN,,0.02,104.0,WeatherDisplay:10.37,2013-05-23 17:19:00,
2013-05-23 19:24:00,47.8,41.6,29.86,ESE,113,3.5,0.0,79,0.00,BKN,,0.02,74.0,WeatherDisplay:10.37,2013-05-23 17:24:00,
2013-05-23 19:29:00,47.7,41.5,29.86,WNW,297,2.3,2.3,79,0.00,BKN,,0.02,46.0,WeatherDisplay:10.37,2013-05-23 17:29:00,
2013-05-23 19:34:00,47.6,41.4,29.86,South,186,2.3,2.3,79,0.00,BKN,,0.02,65.0,WeatherDisplay:10.37,2013-05-23 17:34:00,
2013-05-23 19:39:00,47.7,41.8,29.86,South,185,1.2,0.0,80,0.00,BKN,,0.02,74.0,WeatherDisplay:10.37,2013-05-23 17:39:00,
2013-05-23 19:44:00,47.6,40.7,29.87,South,169,2.0,2.0,77,0.00,BKN,,0.02,54.0,WeatherDisplay:10.37,2013-05-23 17:44:00,
2013-05-23 19:49:00,47.4,40.6,29.87,SSW,210,5.8,5.8,77,0.00,BKN,,0.02,42.0,WeatherDisplay:10.37,2013-05-23 17:49:00,
2013-05-23 19:54:00,47.3,41.1,29.87,SE,131,2.3,2.3,79,0.00,BKN,,0.02,42.0,WeatherDisplay:10.37,2013-05-23 17:54:00,
2013-05-23 19:59:00,47.2,41.0,29.87,SSE,148,4.6,4.6,79,0.00,BKN,,0.02,47.0,WeatherDisplay:10.37,2013-05-23 17:59:00,
2013-05-23 20:04:00,47.2,41.0,29.87,SSE,148,0.0,0.0,79,0.00,SCT,,0.02,56.0,WeatherDisplay:10.37,2013-05-23 18:04:00,
2013-05-23 20:09:00,47.1,40.6,29.87,SSE,148,0.0,1.0,78,0.00,SCT,,0.02,72.0,WeatherDisplay:10.37,2013-05-23 18:09:00,
2013-05-23 20:14:00,47.0,40.5,29.87,SSE,152,1.2,0.0,78,0.00,FEW,,0.02,51.0,WeatherDisplay:10.37,2013-05-23 18:14:00,
2013-05-23 20:19:00,46.9,40.4,29.87,SE,145,5.8,5.8,78,0.00,SCT,,0.02,39.0,WeatherDisplay:10.37,2013-05-23 18:19:00,
2013-05-23 20:24:00,46.7,40.5,29.87,WSW,241,1.2,1.2,79,0.00,SCT,,0.02,30.0,WeatherDisplay:10.37,2013-05-23 18:24:00,
2013-05-23 20:29:00,46.7,40.2,29.87,SSW,196,4.6,4.6,78,0.00,SCT,,0.02,23.0,WeatherDisplay:10.37,2013-05-23 18:29:00,
2013-05-23 20:34:00,46.8,40.3,29.88,SSW,211,3.5,3.5,78,0.00,SCT,,0.02,21.0,WeatherDisplay:10.37,2013-05-23 18:34:00,
2013-05-23 20:39:00,46.7,40.2,29.87,South,174,2.0,2.0,78,0.00,CLR,,0.02,25.0,WeatherDisplay:10.37,2013-05-23 18:39:00,
2013-05-23 20:44:00,46.7,40.2,29.87,SSE,155,3.5,3.5,78,0.00,FEW,,0.02,14.0,WeatherDisplay:10.37,2013-05-23 18:44:00,
2013-05-23 20:49:00,46.7,39.9,29.88,SSE,159,5.8,5.8,77,0.00,CLR,,0.02,16.0,WeatherDisplay:10.37,2013-05-23 18:49:00,
2013-05-23 20:54:00,46.5,40.3,29.88,South,178,4.6,4.6,79,0.00,FEW,,0.02,9.0,WeatherDisplay:10.37,2013-05-23 18:54:00,
2013-05-23 20:59:00,46.4,39.9,29.88,South,178,1.0,0.0,78,0.00,OVC,,0.02,5.0,WeatherDisplay:10.37,2013-05-23 18:59:00,
2013-05-23 21:04:00,46.3,39.8,29.88,WSW,254,3.5,3.5,78,0.00,OVC,,0.02,0.0,WeatherDisplay:10.37,2013-05-23 19:04:00,
2013-05-23 21:09:00,46.3,40.5,29.88,WSW,254,0.0,0.0,80,0.00,OVC,,0.02,0.0,WeatherDisplay:10.37,2013-05-23 19:09:00,
2013-05-23 21:14:00,45.8,40.3,29.88,WSW,254,0.0,0.0,81,0.00,OVC,,0.02,0.0,WeatherDisplay:10.37,2013-05-23 19:14:00,
2013-05-23 21:19:00,45.7,40.2,29.88,WSW,248,3.5,3.5,81,0.00,OVC,,0.02,0.0,WeatherDisplay:10.37,2013-05-23 19:19:00,
2013-05-23 21:24:00,45.6,40.1,29.88,West,271,4.6,4.6,81,0.00,OVC,,0.02,0.0,WeatherDisplay:10.37,2013-05-23 19:24:00,
2013-05-23 21:29:00,45.5,40.3,29.88,WNW,292,1.2,0.0,82,0.00,OVC,,0.02,0.0,WeatherDisplay:10.37,2013-05-23 19:29:00,
2013-05-23 21:34:00,45.1,40.2,29.89,WNW,292,3.0,3.0,83,0.00,OVC,,0.02,0.0,WeatherDisplay:10.37,2013-05-23 19:34:00,
2013-05-23 21:39:00,45.2,40.3,29.89,WNW,292,1.2,1.2,83,0.00,OVC,,0.02,0.0,WeatherDisplay:10.37,2013-05-23 19:39:00,
2013-05-23 21:44:00,44.9,40.4,29.89,WNW,292,3.5,3.5,84,0.00,OVC,,0.02,0.0,WeatherDisplay:10.37,2013-05-23 19:44:00,
2013-05-23 21:49:00,44.9,40.4,29.89,WNW,292,0.0,0.0,84,0.00,OVC,,0.02,0.0,WeatherDisplay:10.37,2013-05-23 19:49:00,
2013-05-23 21:54:00,44.7,40.2,29.90,WNW,292,0.0,0.0,84,0.00,OVC,,0.02,0.0,WeatherDisplay:10.37,2013-05-23 19:54:00,
2013-05-23 21:59:00,44.5,40.3,29.89,WNW,292,0.0,0.0,85,0.00,OVC,,0.02,0.0,WeatherDisplay:10.37,2013-05-23 19:59:00,
2013-05-23 22:04:00,44.4,40.2,29.90,NW,325,3.5,3.5,85,0.00,OVC,,0.02,0.0,WeatherDisplay:10.37,2013-05-23 20:04:00,
2013-05-23 22:09:00,45.2,40.3,29.89,NNW,327,0.0,0.0,83,0.00,OVC,,0.02,0.0,WeatherDisplay:10.37,2013-05-23 20:09:00,
2013-05-23 22:14:00,45.1,40.2,29.90,NNW,327,0.0,0.0,83,0.00,OVC,,0.02,0.0,WeatherDisplay:10.37,2013-05-23 20:14:00,
2013-05-23 22:19:00,44.9,40.0,29.89,NNW,327,0.0,0.0,83,0.00,OVC,,0.02,0.0,WeatherDisplay:10.37,2013-05-23 20:19:00,
2013-05-23 22:24:00,44.8,40.3,29.90,NNW,327,0.0,0.0,84,0.00,OVC,,0.02,0.0,WeatherDisplay:10.37,2013-05-23 20:24:00,
2013-05-23 22:29:00,44.7,40.2,29.90,NNW,327,0.0,0.0,84,0.00,OVC,,0.02,0.0,WeatherDisplay:10.37,2013-05-23 20:29:00,
2013-05-23 22:34:00,44.5,40.3,29.90,NNW,327,0.0,0.0,85,0.00,OVC,,0.02,0.0,WeatherDisplay:10.37,2013-05-23 20:34:00,
2013-05-23 22:39:00,44.1,39.9,29.90,NNW,327,2.0,2.0,85,0.00,OVC,,0.02,0.0,WeatherDisplay:10.37,2013-05-23 20:39:00,
2013-05-23 22:44:00,44.2,40.3,29.90,NNE,17,3.5,3.5,86,0.00,OVC,,0.02,0.0,WeatherDisplay:10.37,2013-05-23 20:44:00,
2013-05-23 22:49:00,44.3,40.4,29.90,NNE,17,2.3,2.3,86,0.00,OVC,,0.02,0.0,WeatherDisplay:10.37,2013-05-23 20:49:00,
2013-05-23 22:54:00,44.4,40.5,29.90,NNE,24,3.5,0.0,86,0.00,OVC,,0.02,0.0,WeatherDisplay:10.37,2013-05-23 20:54:00,
2013-05-23 22:59:00,44.7,40.5,29.90,NNE,24,0.0,0.0,85,0.00,OVC,,0.02,0.0,WeatherDisplay:10.37,2013-05-23 20:59:00,
2013-05-23 23:04:00,44.7,40.5,29.90,NNE,24,2.3,2.3,85,0.00,OVC,,0.02,0.0,WeatherDisplay:10.37,2013-05-23 21:04:00,
2013-05-23 23:09:00,44.9,40.7,29.90,NNE,26,3.5,3.5,85,0.00,OVC,,0.02,0.0,WeatherDisplay:10.37,2013-05-23 21:09:00,
2013-05-23 23:14:00,45.0,40.5,29.90,NE,53,5.8,5.8,84,0.00,OVC,,0.02,0.0,WeatherDisplay:10.37,2013-05-23 21:14:00,
2013-05-23 23:19:00,45.1,40.6,29.90,NE,46,4.6,4.6,84,0.00,OVC,,0.02,0.0,WeatherDisplay:10.37,2013-05-23 21:19:00,
2013-05-23 23:24:00,45.1,40.6,29.90,ENE,57,4.6,4.6,84,0.00,OVC,,0.02,0.0,WeatherDisplay:10.37,2013-05-23 21:24:00,
2013-05-23 23:29:00,44.9,39.7,29.90,NNE,18,2.3,2.3,82,0.00,OVC,,0.02,0.0,WeatherDisplay:10.37,2013-05-23 21:29:00,
2013-05-23 23:34:00,44.5,38.7,29.90,NNE,29,3.5,3.5,80,0.00,OVC,,0.02,0.0,WeatherDisplay:10.37,2013-05-23 21:34:00,
2013-05-23 23:39:00,43.7,37.9,29.90,NNE,29,0.0,0.0,80,0.01,RA,,0.02,0.0,WeatherDisplay:10.37,2013-05-23 21:39:00,
2013-05-23 23:44:00,43.5,38.7,29.90,NNE,29,0.0,0.0,83,0.01,RA,,0.02,0.0,WeatherDisplay:10.37,2013-05-23 21:44:00,
2013-05-23 23:49:00,43.2,39.0,29.90,NNE,29,0.0,0.0,85,0.01,OVC,,0.02,0.0,WeatherDisplay:10.37,2013-05-23 21:49:00,
2013-05-23 23:54:00,42.8,38.9,29.89,NNE,29,0.0,0.0,86,0.01,OVC,,0.02,0.0,WeatherDisplay:10.37,2013-05-23 21:54:00,
2013-05-23 23:59:00,42.8,39.2,29.89,WNW,292,3.5,3.5,87,0.01,OVC,,0.02,0.0,WeatherDisplay:10.37,2013-05-23 21:59:00,